[[{"header":{"parameterUnit":"m.s-1","parameterCategory":1,"la1":30.2991,"la2":30.254,"lo1":-89.0895,"lo2":-89.0444,"dy":0.0017,"dx":0.0017,"nx":28,"ny":28,"refTime":"2025-07-25T09:00:00:Z","depth":0,"parameterNumber":2,"parameterNumberName":"U-component_of_WINDS"},"data":[0,0,0,0,0,0,0,0,0,0,0,0,0,0,0,0,0,0,0,0,0,0,0,0,0,0,0,0,0,0,0,0,0,0,0,0,0,0,0,0,0,0,0,0,0,0,0,0,0,0,0,0,0,0,0,0,0,0,1.4964,1.4965,0,1.5017,1.5017,1.5018,1.5015,1.5014,1.5013,1.5012,1.5065,1.5068,1.507,0,0,0,0,0,0,0,0,0,0,0,0,0,1.4859,1.4861,1.4964,1.4965,1.4966,1.5017,1.5018,1.5018,1.5015,1.5014,1.5013,1.5012,1.5065,1.5067,1.507,0,0,0,0,0,0,0,0,0,0,0,0,0,1.4908,1.4862,1.4964,1.497,1.4971,1.5017,1.5018,1.5018,1.5015,1.5014,1.5013,1.5012,1.5064,1.5067,1.507,1.5113,0,0,1.508,1.5081,0,0,0,0,0,0,0,0,1.4905,1.4911,1.4969,1.497,1.4971,1.5008,1.5,1.505,1.5015,1.4998,1.5012,1.5011,1.5047,1.5052,1.5064,1.5115,1.5118,1.508,1.5082,1.5084,1.5084,0,0,0,0,0,0,0,1.4902,1.4909,1.4985,1.4969,1.4971,1.497,1.4975,1.5009,1.5029,1.5,1.5,1.5006,1.5048,1.5061,1.5065,1.5119,1.508,1.5083,1.5085,1.5086,1.5205,1.5206,0,0,0,0,0,0,1.4897,1.4906,1.4983,1.4987,1.4934,1.4972,1.4979,1.4997,1.5028,1.5032,1.5007,1.5006,1.5056,1.5062,1.5067,1.5117,1.5084,1.5087,1.5088,1.5204,1.5205,1.5206,0,0,0,0,0,0,1.4895,1.4904,1.4981,1.4947,1.4956,1.4975,1.4996,1.4999,1.5012,1.5034,1.5037,1.5017,1.5055,1.5063,1.5101,1.5119,1.5088,1.5091,1.5202,1.5204,1.5206,1.5219,0,0,0,0,0,0,1.4892,1.4903,1.492,1.4947,1.4958,1.5015,1.4998,1.5001,1.5018,1.5017,1.5044,1.5047,1.5055,1.5096,1.5104,1.5123,1.5093,1.5201,1.5203,1.5205,1.5217,1.5221,1.5224,0,0,0,0,0,1.4888,1.4922,1.4921,1.493,1.498,1.5016,1.5022,1.5031,1.5019,1.5036,1.5049,1.5047,1.5116,1.51,1.5109,1.5129,1.52,1.5202,1.5205,1.5215,1.522,1.5224,0,0,0,0,0,0,1.4897,1.4926,1.4925,1.4969,1.499,1.5015,1.5037,1.5036,1.5061,1.5058,1.5068,1.5074,1.5112,1.5125,1.5106,1.5171,1.5156,1.5161,1.5161,1.5166,1.5169,1.5165,1.5096,0,0,0,0,0,1.4904,1.4932,1.4955,1.4992,1.5002,1.5018,1.5034,1.5038,1.506,1.5069,1.5086,1.5107,1.5133,1.515,1.5176,1.5219,1.5224,1.5237,1.5241,1.5244,1.5247,1.5268,1.5274,1.5216,1.5216,1.5216,0,0,1.4919,1.4938,1.4955,1.4994,1.5011,1.5038,1.5025,1.5055,1.5075,1.5074,1.511,1.5123,1.5147,1.5187,1.5206,1.5199,1.5264,1.5247,1.525,1.5251,1.5272,1.5277,1.5282,1.5218,1.5217,1.5217,0,0,1.496,1.4978,1.5009,1.5026,1.5051,1.5061,1.5069,1.5094,1.5102,1.5139,1.5138,1.5162,1.5208,1.5224,1.5239,1.5284,1.5282,1.5293,1.5311,1.5332,1.5337,1.5341,1.5355,1.536,1.5296,1.5296,1.5296,0,1.4975,1.5016,1.5025,1.5054,1.507,1.5071,1.5101,1.5117,1.515,1.5161,1.5153,1.5209,1.5226,1.5269,1.5279,1.5292,1.5299,1.5289,1.5335,1.534,1.5343,1.5357,1.5362,1.5297,1.5297,1.5297,1.5297,0,1.5032,1.5061,1.5083,1.5113,1.5132,1.5162,1.5175,1.5193,1.5195,1.5206,1.5242,1.5262,1.5291,1.5302,1.5305,1.5344,1.5339,1.5334,1.5319,1.535,1.5362,1.5368,1.5299,1.5298,1.5298,1.5298,0,0,1.508,1.5114,1.5122,1.5135,1.5162,1.5184,1.5214,1.5242,1.5256,1.5278,1.5302,1.534,1.5334,1.5351,1.5356,1.5374,1.5406,1.5366,1.5367,1.5371,1.5448,1.5451,1.5457,1.5405,1.5406,1.5407,1.5445,0,1.5121,1.5173,1.5181,1.5227,1.5252,1.5252,1.5277,1.5296,1.5307,1.5329,1.534,1.5366,1.5358,1.5367,1.5386,1.5398,1.5421,1.5396,1.5426,1.5427,1.5418,1.5464,1.5467,1.5502,1.5451,1.5451,1.5452,0,1.5177,1.5199,1.5247,1.5269,1.528,1.5303,1.5328,1.535,1.5371,1.5377,1.5395,1.5397,1.5427,1.5412,1.5451,1.5433,1.5446,1.5454,1.5456,1.5457,1.544,1.5465,1.5514,1.5519,1.546,1.546,1.5459,0,1.5203,1.5246,1.528,1.5291,1.5319,1.5334,1.5347,1.5367,1.5382,1.5404,1.5414,1.544,1.5453,1.5472,1.5481,1.547,1.5519,1.5505,1.5523,1.5523,1.5532,1.5531,1.5583,1.5544,1.5544,1.5544,1.5544,0,1.5248,1.5276,1.5292,1.5312,1.5344,1.5353,1.5383,1.5395,1.5413,1.5434,1.5437,1.5457,1.5469,1.549,1.5498,1.5528,1.5535,1.5539,1.554,1.5538,1.5537,1.5545,1.5542,1.5545,1.5545,1.5545,1.5544,0,1.5282,1.5294,1.533,1.5353,1.536,1.5381,1.5401,1.542,1.543,1.5457,1.5464,1.548,1.5505,1.5516,1.5548,1.5553,1.5587,1.5587,1.558,1.5579,1.5596,1.5594,1.5653,1.566,1.5618,1.5619,1.5619,0,1.5309,1.5331,1.5356,1.537,1.5383,1.5407,1.5422,1.5432,1.5448,1.5473,1.5488,1.5514,1.5535,1.5575,1.5589,1.5613,1.5613,1.5632,1.5616,1.5612,1.5611,1.5608,1.561,1.5634,1.5635,1.5635,1.5635,0,1.5354,1.5358,1.5381,1.5405,1.5424,1.5443,1.5462,1.5474,1.5486,1.5504,1.553,1.5546,1.5578,1.5602,1.5627,1.5639,1.5638,1.564,1.5645,1.5642,1.5636,1.5637,1.5585,1.5638,1.5638,1.5638,1.5638,1.5638,1.5384,1.5403,1.5422,1.5447,1.5462,1.5479,1.5498,1.551,1.5532,1.5558,1.5562,1.5589,1.5609,1.5641,1.5654,1.5675,1.567,1.5678,1.568,1.5681,1.5681,1.5634,1.568,1.568,1.568,1.568,1.5679,0,1.5427,1.544,1.5462,1.5488,1.5507,1.5506,1.5526,1.5542,1.5566,1.5584,1.5604,1.5633,1.5657,1.5672,1.5696,1.5709,1.5709,1.5715,1.5713,1.5715,1.5685,1.5677,1.5714,1.5714,1.5714,1.5714,1.5714,1.5714,1.5452,1.5482,1.5489,1.5527,1.5539,1.5565,1.5577,1.5592,1.5607,1.5639,1.5658,1.5668,1.5684,1.5709,1.573,1.5734,1.5742,1.5747,1.5751,1.5721,1.5718,1.5714,1.5707,1.5749,1.5749,1.5779,1.5779,1.578]},{"header":{"parameterUnit":"m.s-1","parameterCategory":1,"la1":30.2991,"la2":30.254,"lo1":-89.0895,"lo2":-89.0444,"dy":0.0017,"dx":0.0017,"nx":28,"ny":28,"refTime":"2025-07-25T09:00:00:Z","depth":0,"parameterNumber":3,"parameterNumberName":"V-component_of_WINDS"},"data":[0,0,0,0,0,0,0,0,0,0,0,0,0,0,0,0,0,0,0,0,0,0,0,0,0,0,0,0,0,0,0,0,0,0,0,0,0,0,0,0,0,0,0,0,0,0,0,0,0,0,0,0,0,0,0,0,0,0,2.7294,2.7294,0,2.7322,2.7322,2.7323,2.7271,2.7269,2.7267,2.7266,2.7294,2.7296,2.7299,0,0,0,0,0,0,0,0,0,0,0,0,0,2.7193,2.7195,2.7294,2.7294,2.7294,2.7322,2.7322,2.7323,2.7271,2.7269,2.7267,2.7265,2.7293,2.7296,2.7299,0,0,0,0,0,0,0,0,0,0,0,0,0,2.7231,2.7196,2.7294,2.7272,2.727,2.7322,2.7322,2.7323,2.7272,2.7269,2.7266,2.7264,2.7292,2.7296,2.7299,2.7373,0,0,2.731,2.7312,0,0,0,0,0,0,0,0,2.7229,2.7235,2.7275,2.7274,2.7272,2.729,2.7297,2.734,2.7272,2.7271,2.7266,2.7263,2.7295,2.7298,2.7309,2.7374,2.7376,2.7311,2.7313,2.7314,2.7315,0,0,0,0,0,0,0,2.7226,2.7233,2.7305,2.7276,2.7274,2.726,2.7263,2.7305,2.7297,2.7271,2.7267,2.7271,2.7294,2.7306,2.7309,2.7376,2.731,2.7314,2.7316,2.7317,2.75,2.7503,0,0,0,0,0,0,2.7226,2.7231,2.7304,2.7306,2.7243,2.7264,2.7267,2.7287,2.7297,2.7296,2.7274,2.7269,2.7301,2.7305,2.731,2.7395,2.7314,2.7318,2.732,2.7498,2.7501,2.7504,0,0,0,0,0,0,2.7225,2.7233,2.7303,2.7267,2.7275,2.7269,2.7292,2.7289,2.7301,2.7299,2.7297,2.7288,2.7299,2.7305,2.7357,2.7395,2.7319,2.7322,2.7494,2.7499,2.7502,2.7566,0,0,0,0,0,0,2.7222,2.7233,2.7262,2.7268,2.7277,2.735,2.7294,2.7291,2.7307,2.7301,2.7311,2.731,2.7298,2.7352,2.7361,2.7399,2.7325,2.7491,2.7496,2.7501,2.7561,2.7572,2.7582,0,0,0,0,0,2.7218,2.7279,2.7263,2.7272,2.7313,2.7353,2.7358,2.7342,2.7311,2.7339,2.7337,2.731,2.739,2.7358,2.7367,2.7407,2.7488,2.7495,2.7501,2.7556,2.757,2.7582,0,0,0,0,0,0,2.7277,2.728,2.7262,2.7327,2.734,2.7344,2.7379,2.7357,2.7379,2.7373,2.7352,2.7355,2.7411,2.7414,2.7378,2.7477,2.7434,2.7442,2.7473,2.7486,2.7496,2.7494,2.7328,0,0,0,0,0,2.7298,2.733,2.733,2.7387,2.7395,2.7386,2.7403,2.7389,2.7402,2.7407,2.7409,2.7422,2.7449,2.7468,2.7494,2.7561,2.7562,2.7593,2.7604,2.7612,2.7619,2.7653,2.7666,2.7524,2.7524,2.7524,0,0,2.7341,2.7346,2.7368,2.7399,2.7408,2.7441,2.7391,2.7428,2.7452,2.7412,2.7461,2.7463,2.7476,2.7535,2.7562,2.754,2.7659,2.762,2.7627,2.7629,2.7661,2.7674,2.7686,2.7528,2.7527,2.7527,0,0,2.7435,2.7443,2.749,2.7499,2.7512,2.7506,2.7517,2.7524,2.7523,2.7572,2.7542,2.757,2.7619,2.7628,2.7639,2.7735,2.7711,2.7744,2.7799,2.7832,2.7843,2.7853,2.7885,2.7897,2.7752,2.7752,2.7752,0,2.7486,2.7535,2.7517,2.7556,2.757,2.7535,2.7582,2.7591,2.7612,2.7622,2.7598,2.7657,2.7663,2.7723,2.7746,2.7758,2.7768,2.7743,2.7843,2.7853,2.7862,2.7892,2.7904,2.7756,2.7755,2.7755,2.7754,0,2.7596,2.7631,2.7667,2.7687,2.7705,2.7748,2.7736,2.7756,2.7741,2.7736,2.7785,2.7791,2.7816,2.783,2.7816,2.7888,2.7873,2.7847,2.7802,2.7879,2.7907,2.7919,2.7761,2.776,2.7758,2.7758,0,0,2.7729,2.7737,2.7751,2.7758,2.7769,2.7795,2.7836,2.786,2.7877,2.7892,2.7924,2.7966,2.794,2.7953,2.7939,2.7969,2.8041,2.7938,2.7938,2.7955,2.8118,2.8138,2.8152,2.8026,2.8028,2.803,2.8117,0,2.7821,2.789,2.7874,2.7943,2.7973,2.7939,2.7974,2.7984,2.7981,2.8005,2.8001,2.803,2.7995,2.8002,2.803,2.8027,2.8074,2.8021,2.8054,2.8056,2.805,2.8167,2.8187,2.8269,2.8128,2.813,2.8131,0,2.7938,2.7956,2.8027,2.8031,2.8043,2.8075,2.8094,2.8119,2.8129,2.8124,2.8138,2.8118,2.8156,2.8113,2.8165,2.8129,2.8142,2.8142,2.8145,2.8146,2.8097,2.8169,2.8295,2.8307,2.8149,2.8147,2.8146,0,2.8024,2.8067,2.8115,2.8123,2.8129,2.8152,2.8155,2.8163,2.8177,2.8195,2.8204,2.8226,2.8237,2.8254,2.824,2.821,2.8294,2.8249,2.829,2.829,2.8308,2.8307,2.8436,2.8319,2.8319,2.8319,2.8319,0,2.8128,2.8172,2.8153,2.8182,2.823,2.8211,2.8259,2.8259,2.8265,2.8293,2.8266,2.8292,2.8273,2.8297,2.8287,2.833,2.8336,2.8333,2.8329,2.8334,2.8334,2.8341,2.8335,2.8322,2.8321,2.8321,2.832,0,2.8233,2.8222,2.8271,2.8273,2.8274,2.8309,2.831,2.8336,2.833,2.8365,2.8373,2.8363,2.8391,2.8378,2.8408,2.84,2.8455,2.8445,2.8452,2.8449,2.8489,2.8485,2.8626,2.8643,2.8517,2.8518,2.8519,0,2.8299,2.8332,2.8336,2.8352,2.8358,2.8385,2.8399,2.8381,2.8397,2.841,2.8434,2.8459,2.8478,2.8523,2.8518,2.854,2.8528,2.8576,2.8531,2.8535,2.8527,2.8524,2.8527,2.8585,2.8587,2.8588,2.8589,0,2.8416,2.8409,2.8431,2.8451,2.8468,2.8483,2.8496,2.8511,2.8493,2.8512,2.8539,2.8554,2.8582,2.8607,2.8625,2.8628,2.8605,2.8603,2.8613,2.8618,2.862,2.8617,2.8475,2.86,2.8599,2.8598,2.8597,2.8597,2.8502,2.8529,2.8536,2.856,2.8568,2.8579,2.8603,2.86,2.8622,2.8644,2.8632,2.8663,2.867,2.8693,2.8698,2.8722,2.8703,2.8718,2.8722,2.8725,2.873,2.8617,2.8725,2.8725,2.8725,2.8725,2.8724,0,2.8616,2.8619,2.8642,2.8659,2.8678,2.8655,2.8667,2.8684,2.8712,2.8721,2.8739,2.8769,2.8792,2.8789,2.881,2.8829,2.8819,2.8835,2.8833,2.8833,2.8747,2.8735,2.8843,2.8843,2.8843,2.8843,2.8843,2.8843,2.8678,2.8721,2.8714,2.876,2.8762,2.8792,2.8801,2.8811,2.8817,2.8852,2.8871,2.8868,2.8872,2.8892,2.8912,2.891,2.8918,2.8938,2.8933,2.8851,2.884,2.8828,2.8817,2.894,2.8941,2.9017,2.9018,2.9018]}]]